Location: Mountain Grove
(34.0887°N, 86.6172°W)
Time: 14:45:35
(UTC+00:00)

NPP - Pass Details

Date: 14 July 2020
Orbit: 826 x 828 km, 98.7° (Epoch: 13 August)

Event Time Altitude Azimuth Distance (km) Brightness Sun altitude
Rises 08:07:15 0° 3° (N) 3,370 7.7 -25.8°
Reaches altitude 10° 08:09:45 10° 355° (N) 2,433 6.7 -25.5°
Maximum altitude 08:14:39 37° 289° (WNW) 1,255 4.4 -24.9°
Enters shadow 08:14:50 37° 285° (WNW) 1,257 4.4 -24.8°
